Time,TemperatureF,DewpointF,PressureIn,WindDirection,WindDirectionDegrees,WindSpeedMPH,WindSpeedGustMPH,Humidity,HourlyPrecipIn,Conditions,Clouds,dailyrainin,SoftwareType,DateUTC
2013-01-11 06:30:00,60.0,59.4,30.24,East,97,0.0,1.0,98,0.00,,,0.01,Wunderground v.1.15,2013-01-11 11:30:00,
2013-01-11 06:40:00,59.8,59.2,30.24,East,97,0.0,1.0,98,0.00,,,0.01,Wunderground v.1.15,2013-01-11 11:40:00,
2013-01-11 06:50:00,59.7,59.1,30.24,East,97,0.0,1.0,98,0.00,,,0.01,Wunderground v.1.15,2013-01-11 11:50:00,
2013-01-11 07:00:00,59.4,58.8,30.24,East,97,0.0,1.0,98,0.00,,,0.01,Wunderground v.1.15,2013-01-11 12:00:00,
2013-01-11 07:10:00,59.3,58.7,30.24,East,97,0.0,1.0,98,0.00,,,0.01,Wunderground v.1.15,2013-01-11 12:10:00,
2013-01-11 07:20:00,59.2,58.6,30.25,East,97,0.0,1.0,98,0.00,,,0.01,Wunderground v.1.15,2013-01-11 12:20:00,
2013-01-11 07:30:00,59.1,58.5,30.25,East,97,0.0,1.0,98,0.00,,,0.01,Wunderground v.1.15,2013-01-11 12:30:00,
2013-01-11 07:40:00,59.1,58.5,30.25,East,97,0.0,1.0,98,0.00,,,0.01,Wunderground v.1.15,2013-01-11 12:40:00,
2013-01-11 07:50:00,59.2,58.6,30.25,East,97,0.0,1.0,98,0.00,,,0.01,Wunderground v.1.15,2013-01-11 12:50:00,
2013-01-11 08:00:00,59.8,59.5,30.25,East,97,0.0,1.0,99,0.00,,,0.01,Wunderground v.1.15,2013-01-11 13:00:00,
2013-01-11 08:10:00,61.0,60.7,30.25,East,97,0.0,1.0,99,0.00,,,0.01,Wunderground v.1.15,2013-01-11 13:10:00,
2013-01-11 08:20:00,62.3,62.0,30.25,East,97,0.0,1.0,99,0.00,,,0.01,Wunderground v.1.15,2013-01-11 13:20:00,
2013-01-11 08:30:00,63.4,63.1,30.26,ESE,117,0.0,1.0,99,0.00,,,0.01,Wunderground v.1.15,2013-01-11 13:30:00,
2013-01-11 08:40:00,64.4,64.1,30.26,ESE,116,0.0,1.0,99,0.00,,,0.01,Wunderground v.1.15,2013-01-11 13:40:00,
2013-01-11 08:50:00,64.9,64.6,30.26,ESE,116,0.0,1.0,99,0.00,,,0.01,Wunderground v.1.15,2013-01-11 13:50:00,
2013-01-11 09:00:00,65.5,65.2,30.26,ESE,109,0.0,2.0,99,0.00,,,0.01,Wunderground v.1.15,2013-01-11 14:00:00,
2013-01-11 09:10:00,65.7,65.4,30.26,ESE,121,0.0,1.0,99,0.00,,,0.01,Wunderground v.1.15,2013-01-11 14:10:00,
2013-01-11 09:20:00,66.2,65.9,30.26,SE,127,0.0,1.0,99,0.00,,,0.01,Wunderground v.1.15,2013-01-11 14:20:00,
2013-01-11 09:30:00,66.6,66.3,30.26,SSW,203,0.0,1.0,99,0.00,,,0.01,Wunderground v.1.15,2013-01-11 14:30:00,
2013-01-11 09:40:00,66.8,66.5,30.26,East,101,0.0,1.0,99,0.00,,,0.01,Wunderground v.1.15,2013-01-11 14:40:00,
2013-01-11 09:50:00,67.0,66.4,30.26,SE,125,0.0,1.0,98,0.00,,,0.01,Wunderground v.1.15,2013-01-11 14:50:00,
2013-01-11 10:00:00,67.6,67.0,30.26,East,98,0.0,1.0,98,0.00,,,0.01,Wunderground v.1.15,2013-01-11 15:00:00,
2013-01-11 10:10:00,68.7,67.8,30.26,ESE,121,1.0,1.0,97,0.00,,,0.01,Wunderground v.1.15,2013-01-11 15:10:00,
2013-01-11 10:20:00,69.6,68.1,30.26,East,81,1.0,4.0,95,0.00,,,0.01,Wunderground v.1.15,2013-01-11 15:20:00,
2013-01-11 10:30:00,70.7,68.3,30.25,South,184,1.0,1.0,92,0.00,,,0.01,Wunderground v.1.15,2013-01-11 15:30:00,
2013-01-11 10:40:00,71.5,68.4,30.25,South,176,0.0,1.0,90,0.00,,,0.01,Wunderground v.1.15,2013-01-11 15:40:00,
2013-01-11 10:50:00,71.5,67.8,30.25,SSW,198,2.0,2.0,88,0.00,,,0.01,Wunderground v.1.15,2013-01-11 15:50:00,
2013-01-11 11:00:00,71.8,68.4,30.26,SSW,197,0.0,1.0,89,0.00,,,0.01,Wunderground v.1.15,2013-01-11 16:00:00,
2013-01-11 11:10:00,71.8,67.7,30.26,SSW,210,0.0,1.0,87,0.00,,,0.01,Wunderground v.1.15,2013-01-11 16:10:00,
2013-01-11 11:20:00,72.2,68.1,30.25,South,191,1.0,1.0,87,0.00,,,0.01,Wunderground v.1.15,2013-01-11 16:20:00,
2013-01-11 11:30:00,72.9,68.1,30.25,South,183,2.0,5.0,85,0.00,,,0.01,Wunderground v.1.15,2013-01-11 16:30:00,
2013-01-11 11:40:00,73.5,68.4,30.24,SSW,194,2.0,2.0,84,0.00,,,0.01,Wunderground v.1.15,2013-01-11 16:40:00,
2013-01-11 11:50:00,73.9,68.8,30.24,SW,220,2.0,6.0,84,0.00,,,0.01,Wunderground v.1.15,2013-01-11 16:50:00,
2013-01-11 12:00:00,74.7,68.8,30.23,SW,219,1.0,1.0,82,0.00,,,0.01,Wunderground v.1.15,2013-01-11 17:00:00,
2013-01-11 12:10:00,75.4,68.8,30.23,SSE,155,0.0,1.0,80,0.00,,,0.01,Wunderground v.1.15,2013-01-11 17:10:00,
2013-01-11 12:20:00,76.0,68.3,30.22,SSE,167,1.0,1.0,77,0.00,,,0.01,Wunderground v.1.15,2013-01-11 17:20:00,
2013-01-11 12:30:00,76.8,68.3,30.22,ESE,111,0.0,1.0,75,0.00,,,0.01,Wunderground v.1.15,2013-01-11 17:30:00,
2013-01-11 12:40:00,77.5,68.2,30.22,East,98,1.0,1.0,73,0.00,,,0.01,Wunderground v.1.15,2013-01-11 17:40:00,
2013-01-11 12:50:00,77.7,68.0,30.21,SSW,206,2.0,2.0,72,0.00,,,0.01,Wunderground v.1.15,2013-01-11 17:50:00,
2013-01-11 13:00:00,77.9,67.3,30.20,South,180,2.0,3.0,70,0.00,,,0.01,Wunderground v.1.15,2013-01-11 18:00:00,
2013-01-11 13:10:00,78.2,66.8,30.20,ESE,113,1.0,1.0,68,0.00,,,0.01,Wunderground v.1.15,2013-01-11 18:10:00,
2013-01-11 13:20:00,79.1,66.3,30.19,East,101,1.0,1.0,65,0.00,,,0.01,Wunderground v.1.15,2013-01-11 18:20:00,
2013-01-11 13:30:00,79.8,66.5,30.19,SSE,157,1.0,1.0,64,0.00,,,0.01,Wunderground v.1.15,2013-01-11 18:30:00,
2013-01-11 13:40:00,80.2,65.5,30.19,East,97,1.0,1.0,61,0.00,,,0.01,Wunderground v.1.15,2013-01-11 18:40:00,
2013-01-11 13:50:00,80.2,64.6,30.19,SSW,202,2.0,2.0,59,0.00,,,0.01,Wunderground v.1.15,2013-01-11 18:50:00,
2013-01-11 14:00:00,80.4,64.8,30.18,ESE,102,0.0,1.0,59,0.00,,,0.01,Wunderground v.1.15,2013-01-11 19:00:00,
2013-01-11 14:10:00,80.7,64.5,30.18,SSW,198,1.0,1.0,58,0.00,,,0.01,Wunderground v.1.15,2013-01-11 19:10:00,
2013-01-11 15:32:00,80.4,64.8,30.18,SSE,163,0.0,1.0,59,0.00,,,0.01,Wunderground v.1.15,2013-01-11 20:32:00,
2013-01-11 15:40:00,81.0,64.8,30.18,SSW,208,0.0,1.0,58,0.00,,,0.01,Wunderground v.1.15,2013-01-11 20:40:00,
2013-01-11 15:50:00,80.3,65.6,30.18,SSW,200,0.0,1.0,61,0.00,,,0.01,Wunderground v.1.15,2013-01-11 20:50:00,
2013-01-11 16:00:00,80.8,65.1,30.18,ESE,111,0.0,1.0,59,0.00,,,0.01,Wunderground v.1.15,2013-01-11 21:00:00,
2013-01-11 16:40:00,79.8,65.6,30.17,ESE,107,0.0,1.0,62,0.00,,,0.01,Wunderground v.1.15,2013-01-11 21:40:00,
2013-01-11 16:50:00,79.7,66.0,30.17,ESE,120,0.0,1.0,63,0.00,,,0.01,Wunderground v.1.15,2013-01-11 21:50:00,
2013-01-11 17:00:00,79.6,66.3,30.17,ESE,120,0.0,1.0,64,0.00,,,0.01,Wunderground v.1.15,2013-01-11 22:00:00,
2013-01-11 17:10:00,79.4,66.2,30.17,ESE,120,0.0,1.0,64,0.00,,,0.01,Wunderground v.1.15,2013-01-11 22:10:00,
2013-01-11 17:20:00,79.4,66.2,30.17,ESE,120,0.0,1.0,64,0.00,,,0.01,Wunderground v.1.15,2013-01-11 22:20:00,
2013-01-11 17:30:00,78.9,66.6,30.17,ESE,120,0.0,1.0,66,0.00,,,0.01,Wunderground v.1.15,2013-01-11 22:30:00,
2013-01-11 17:40:00,78.1,66.2,30.17,ESE,120,0.0,1.0,67,0.00,,,0.01,Wunderground v.1.15,2013-01-11 22:40:00,
2013-01-11 17:50:00,76.8,65.9,30.17,ENE,77,0.0,1.0,69,0.00,,,0.01,Wunderground v.1.15,2013-01-11 22:50:00,
2013-01-11 18:00:00,75.4,66.9,30.16,East,97,1.0,4.0,75,0.00,,,0.01,Wunderground v.1.15,2013-01-11 23:00:00,
2013-01-11 18:10:00,74.3,67.4,30.17,East,85,1.0,1.0,79,0.00,,,0.01,Wunderground v.1.15,2013-01-11 23:10:00,
2013-01-11 18:20:00,73.4,67.2,30.17,East,91,1.0,2.0,81,0.00,,,0.01,Wunderground v.1.15,2013-01-11 23:20:00,
2013-01-11 18:30:00,72.8,67.0,30.18,ESE,112,1.0,3.0,82,0.00,,,0.01,Wunderground v.1.15,2013-01-11 23:30:00,
2013-01-11 18:40:00,72.3,66.8,30.18,ENE,77,1.0,1.0,83,0.00,,,0.01,Wunderground v.1.15,2013-01-11 23:40:00,
2013-01-11 18:50:00,71.9,66.8,30.18,ESE,123,0.0,1.0,84,0.00,,,0.01,Wunderground v.1.15,2013-01-11 23:50:00,
2013-01-11 19:00:00,71.4,66.7,30.18,ESE,110,1.0,2.0,85,0.00,,,0.01,Wunderground v.1.15,2013-01-12 00:00:00,
2013-01-11 19:10:00,71.1,66.7,30.18,East,90,0.0,1.0,86,0.00,,,0.01,Wunderground v.1.15,2013-01-12 00:10:00,
2013-01-11 19:20:00,70.8,66.4,30.18,East,84,1.0,1.0,86,0.00,,,0.01,Wunderground v.1.15,2013-01-12 00:20:00,
2013-01-11 19:30:00,70.5,66.4,30.19,ESE,115,1.0,1.0,87,0.00,,,0.01,Wunderground v.1.15,2013-01-12 00:30:00,
2013-01-11 19:40:00,70.4,66.7,30.19,East,98,0.0,1.0,88,0.00,,,0.01,Wunderground v.1.15,2013-01-12 00:40:00,
2013-01-11 19:50:00,70.3,66.6,30.19,East,101,1.0,1.0,88,0.00,,,0.01,Wunderground v.1.15,2013-01-12 00:50:00,
2013-01-11 20:00:00,70.1,66.4,30.19,ENE,70,0.0,1.0,88,0.00,,,0.01,Wunderground v.1.15,2013-01-12 01:00:00,
2013-01-11 20:10:00,69.9,66.2,30.19,South,184,0.0,1.0,88,0.00,,,0.01,Wunderground v.1.15,2013-01-12 01:10:00,
2013-01-11 20:20:00,69.8,66.4,30.19,ESE,113,0.0,1.0,89,0.00,,,0.01,Wunderground v.1.15,2013-01-12 01:20:00,
2013-01-11 20:30:00,69.7,66.3,30.19,East,101,0.0,1.0,89,0.00,,,0.01,Wunderground v.1.15,2013-01-12 01:30:00,
2013-01-11 20:40:00,69.5,65.8,30.19,ESE,117,0.0,1.0,88,0.00,,,0.01,Wunderground v.1.15,2013-01-12 01:40:00,
2013-01-11 20:50:00,69.3,65.6,30.19,ESE,108,0.0,1.0,88,0.00,,,0.01,Wunderground v.1.15,2013-01-12 01:50:00,
2013-01-11 21:00:00,69.2,65.5,30.19,SE,137,0.0,1.0,88,0.00,,,0.01,Wunderground v.1.15,2013-01-12 02:00:00,
2013-01-11 21:10:00,69.2,65.8,30.19,East,90,0.0,1.0,89,0.00,,,0.01,Wunderground v.1.15,2013-01-12 02:10:00,
2013-01-11 21:20:00,69.1,65.7,30.19,East,82,1.0,1.0,89,0.00,,,0.01,Wunderground v.1.15,2013-01-12 02:20:00,
2013-01-11 21:30:00,68.9,65.5,30.20,East,88,0.0,1.0,89,0.00,,,0.01,Wunderground v.1.15,2013-01-12 02:30:00,
2013-01-11 21:40:00,68.8,65.4,30.20,East,90,0.0,1.0,89,0.00,,,0.01,Wunderground v.1.15,2013-01-12 02:40:00,
2013-01-11 21:50:00,68.6,65.2,30.20,East,98,0.0,1.0,89,0.00,,,0.01,Wunderground v.1.15,2013-01-12 02:50:00,
2013-01-11 22:00:00,68.5,65.4,30.20,ENE,73,0.0,1.0,90,0.00,,,0.01,Wunderground v.1.15,2013-01-12 03:00:00,
2013-01-11 22:10:00,68.4,65.4,30.20,ESE,109,0.0,1.0,90,0.00,,,0.01,Wunderground v.1.15,2013-01-12 03:10:00,
2013-01-11 22:20:00,68.1,65.1,30.20,SE,133,0.0,1.0,90,0.00,,,0.01,Wunderground v.1.15,2013-01-12 03:20:00,
2013-01-11 22:30:00,67.9,65.2,30.20,East,97,0.0,1.0,91,0.00,,,0.01,Wunderground v.1.15,2013-01-12 03:30:00,
2013-01-11 22:40:00,67.8,65.1,30.20,ENE,76,0.0,1.0,91,0.00,,,0.01,Wunderground v.1.15,2013-01-12 03:40:00,
2013-01-11 22:50:00,67.6,64.9,30.20,ESE,105,0.0,1.0,91,0.00,,,0.01,Wunderground v.1.15,2013-01-12 03:50:00,
2013-01-11 23:00:00,67.5,65.1,30.20,SE,125,0.0,1.0,92,0.00,,,0.01,Wunderground v.1.15,2013-01-12 04:00:00,
2013-01-11 23:10:00,67.4,65.0,30.20,ESE,120,0.0,1.0,92,0.00,,,0.01,Wunderground v.1.15,2013-01-12 04:10:00,
2013-01-11 23:20:00,67.3,64.9,30.20,SE,137,0.0,1.0,92,0.00,,,0.01,Wunderground v.1.15,2013-01-12 04:20:00,
2013-01-11 23:30:00,67.1,64.7,30.20,SE,136,0.0,1.0,92,0.00,,,0.01,Wunderground v.1.15,2013-01-12 04:30:00,
2013-01-11 23:40:00,67.0,64.6,30.20,SE,136,0.0,1.0,92,0.00,,,0.01,Wunderground v.1.15,2013-01-12 04:40:00,
2013-01-11 23:50:00,66.8,64.7,30.20,SE,142,0.0,1.0,93,0.00,,,0.01,Wunderground v.1.15,2013-01-12 04:50:00,